TITAN 3C TRANSTAGE DEB, 26524

Orbit data source: Space-Track

TITAN 3C TRANSTAGE DEB, 26524 is space debris in HEO originally from a launch on Tue, 21 Dec 1965 UTC launched from the Air Force Eastern Test Range (AFETR). Debris objects in space refer to the collection of defunct objects orbiting the Earth. Examples of debris include non-operational satellites, rocket bodies, and fragments generated from explosions, collisions, or faulty payload assembly.

Loading next visibility...
Identifier
26524, 1965-108AK
Orbit
HEO
Country
Flag of USUS
Related business
Manufacturer
Unknown
Mission
Spacecraft
Bus & Motor
Unknown
Mass
Unknown
Launch date (UTC)
1965-12-21 (60 years ago)
Launch vehicle
Unknown
Launch site
Air Force Eastern Test Range (AFETR)
Object type
Payload
Rocket body
Debris
Shape & HBR
Unknown shape, 0.1 m
Radar Cross Section
Medium (>0.1 m² and <1 m²)

Expand to show TLE details & history
Last TLE update: 1 day ago

TLE from 1 day ago
0 TITAN 3C TRANSTAGE DEB
1 26524U 65108AK  25302.81796618  .00001063  00000-0  12610-1 0  9998
2 26524  26.5625 192.7237 6698087  21.4952   5.5947  2.81638692 37369
Epoch: 2025-10-29T19:37Z
TLE epoch observation values (Epoch: 2025-10-29T19:37:52.277Z)
Latitude
22.26679°
Longitude
-85.67568°
Altitude
1,180.258 km
Speed
9.31 km/s
True Right ascension
16h 28m 42s
True Declination
22° 09' 11"
Sunlit
Object was in daylight at epoch
Visualization orbit readout
Latitude
Unknown
Longitude
Unknown
Altitude
Unknown
Speed
Unknown
Apparent Right ascension
Unknown
Apparent Declination
Unknown
Sunlit
N/A
Visualization observer readout
Local Sidereal Time
00:39:29
Azimuth
Unknown
Elevation
Unknown
Doppler factor
Unknown
Orbital elements
Apogee altitude
28,995.539 km
Perigee altitude
616.724 km
Semi-major axis
21,184.268 km
Eccentricity
0.66981
Inclination
26.5625°
RAAN
192.7237°
Arg. of periapsis
21.4952°
True anomaly
36.08579°
Mean anomaly
5.5947°
Eccentric anomaly
16.48439°
Mean motion
0.70392 °/min
Orbital period
511.42 mins
BSTAR
0.01261
Loading maneuver chart data...
Computing Atmospheric mass density...

Documentation

Showing up to 5 results
|